Regional Weather Roundup
Issued by NWS Midland/Odessa, TX

Skip options and go directly to product.
Home | Oldest Version | Previous Version | Current Version | All | Text Only | Save Text | Print | Product List | Glossary Off

Skip product version selection by date and time.   

666
ASUS44 KMAF 041810
RWRMAF
MIDLAND AREA WEATHER ROUNDUP
NATIONAL WEATHER SERVICE MIDLAND TX
100 PM CDT FRI SEP 04 2015

...IN SOUTHWEST TEXAS AND SOUTHEAST NEW MEXICO...

CITY           SKY/WX    TMP DP  RH WIND       PRES   REMARKS
ALPINE         SUNNY     87  51  29 SW6       30.13F
ANDREWS        FAIR      90  56  31 S10G21    30.03S
ARTESIA        MOSUNNY   90  54  29 SE14G22   30.00F
BIG SPRING     MOSUNNY   90  61  37 SE7G17    30.02F
CARLSBAD       MOSUNNY   93  51  23 SE13G18   29.98F
DRYDEN           N/A     92  64  39 S12       29.95F
FORT STOCKTON  SUNNY     91  53  27 SE10G18   29.99F
GUAD PASS      PTSUNNY   85  51  31 SW12      30.16F
HOBBS          SUNNY     88  55  33 SE14G25   30.05F
MARFA          SUNNY     84  52  32 SE7       30.12F
MIDLAND AIRPK  SUNNY     92  55  28 S9G21     30.01F
MIDLAND INTL   SUNNY     92  55  28 SE20      30.00F
ODESSA         SUNNY     91  54  28 SE21G28   30.01F
PECOS          SUNNY     94  53  25 SE12G18   29.95F
PRESIDIO       FAIR      92  54  27 E5        29.96F
SEMINOLE       MOSUNNY   90  53  28 S13G18    30.04S
SNYDER         SUNNY     89  63  41 SE12      30.00F
WINK           SUNNY     93  57  29 SE17G24   29.97F
$$
...OTHER STATIONS IN TEXAS...

CITY           SKY/WX    TMP DP  RH WIND       PRES   REMARKS
ABILENE        MOSUNNY   91  64  40 MISG      29.98F
AMARILLO       MOSUNNY   88  57  34 SW10G21   30.02F
AUSTIN         PTSUNNY   90  70  51 SW8       29.93F
BROWNSVILLE    MOSUNNY   91  76  61 S20G26    29.91S HX 103
CORPUS CHRISTI PTSUNNY   92  75  57 SE21G26   29.90F HX 103
DALLAS FTW     PTSUNNY   91  69  48 S13       29.95F
DEL RIO        SUNNY     93  68  43 S9        29.90F
EL PASO        CLOUDY    85  51  31 CALM      30.03F
HOUSTON INT    PTSUNNY   86  77  74 E6        29.96F
LUBBOCK        MOSUNNY   89  57  33 SW14G20   30.03F
SAN ANGELO     CLOUDY    93  63  36 S10G16    29.96F
SAN ANTONIO    PTSUNNY   89  70  53 CALM      29.95F
WACO           MOSUNNY   91  68  46 S9        29.95F
WICHITA FALLS  NOT AVBL
$$
...OTHER LOCATIONS IN NEW MEXICO...

CITY           SKY/WX    TMP DP  RH WIND       PRES   REMARKS
ALAMAGORDO     PTSUNNY   82  50  32 W9        30.07F
ALBUQUERQUE    PTSUNNY   77  50  38 W8        30.14F
CANNON AFB     PTSUNNY   88  51  27 VRB6      30.05F
CLOVIS         PTSUNNY   88  50  27 SW13      30.07S
HOLLOMAN AFB   PTSUNNY   84  50  31 W7        30.05F
ROSWELL        PTSUNNY   88  50  27 S10       30.01F
RUIDOSO        CLOUDY    73  46  38 E3        30.25S
SANTA FE       PTSUNNY   76  42  29 N6        30.18F
TRUTH OR CONSE LGT RAIN  71  59  65 S5        30.13R
TUCUMCARI      CLOUDY    85  50  29 S9        30.02S
$$

USA.gov is the U.S. government's official web portal to all federal, state and local government web resources and services.